Location: Penum?ka
(16.4840°N, 80.5772°E)
Time: 02:25:13
(UTC+00:00)

Cosmos 2082 - Visible Passes

Search period start: 23 April 2026 00:00
Search period end: 03 May 2026 00:00
Orbit: 833 x 853 km, 71.0° (Epoch: 22 April)

Date Brightness Start Highest point End Pass type
(mag) Time Alt. Az. Time Alt. Az. Time Alt. Az.
23 Apr 3.9 23:43:20 10° S 23:49:00 77° ESE 23:54:40 10° NNE visible
24 Apr 4.0 23:28:37 10° S 23:34:17 72° ESE 23:39:55 10° NNE visible
25 Apr 4.1 23:13:55 10° S 23:19:33 68° ESE 23:25:10 10° NNE visible
26 Apr 4.1 22:59:14 10° S 23:04:50 64° ESE 23:10:25 10° NNE visible
27 Apr 4.2 22:44:55 12° S 22:50:07 60° ESE 22:55:40 10° NNE visible
28 Apr 4.3 22:31:38 21° S 22:35:24 56° ESE 22:40:55 10° NNE visible
29 Apr 4.3 22:18:14 31° SSE 22:20:40 52° ESE 22:26:09 10° NNE visible
30 Apr 4.4 22:04:43 42° SE 22:05:57 49° ESE 22:11:23 10° NNE visible
30 Apr 5.5 23:47:34 10° W 23:50:02 13° WNW 23:52:31 10° NW visible
1 May 4.4 21:51:04 46° ESE 21:51:14 46° ESE 21:56:36 10° NNE visible
1 May 5.4 23:32:57 11° W 23:35:17 14° WNW 23:38:05 10° NW visible
2 May 4.8 21:37:20 41° E 21:37:20 41° E 21:41:50 10° NE visible
2 May 5.3 23:19:13 14° W 23:20:32 15° WNW 23:23:36 10° NW visible
